When you browse on this site, cookies collect data to enhance your experience and personalize the content and advertising you see.
Visit our Privacy Policy to learn more. By continuing to use the site, you agree to this use of cookies and data.
  • En España
  • Lista de países
  • Para 7 días
  • Temperatura del agua
  • El tiempo en el mapa
  • Informadores
  • user-avatar
    Iniciar sesión

    Tiempo cada hora Campobasso

    Hoy, 16 Noviembre, Sábado

    Tiempo Temperatura Precipitaciones Viento Presión Humedad
    00:00 +10°C° 0.2 mm 6 mps 695 mmHg 87%
    01:00 +10°C° 0 mm 5 mps 695 mmHg 91%
    02:00 +10°C° 0.9 mm 5 mps 695 mmHg 91%
    03:00 +11°C° 0.9 mm 4 mps 696 mmHg 91%
    04:00 +11°C° 0.9 mm 4 mps 696 mmHg 92%
    05:00 +11°C° 1.1 mm 3 mps 696 mmHg 92%
    06:00 +10°C° 1.1 mm 3 mps 696 mmHg 92%
    07:00 +10°C° 0 mm 2 mps 697 mmHg 92%
    08:00 +12°C° 0.3 mm 2 mps 697 mmHg 86%
    09:00 +14°C° 0.3 mm 2 mps 697 mmHg 80%
    10:00 +14°C° 0.3 mm 3 mps 698 mmHg 74%
    11:00 +14°C° 0.1 mm 3 mps 698 mmHg 69%
    12:00 +16°C° 0.1 mm 3 mps 697 mmHg 65%
    13:00 +15°C° 0 mm 4 mps 697 mmHg 64%
    14:00 +16°C° 0.1 mm 3 mps 697 mmHg 65%
    15:00 +14°C° 0.1 mm 3 mps 696 mmHg 66%
    16:00 +15°C° 0.1 mm 2 mps 696 mmHg 68%
    17:00 +14°C° 0 mm 2 mps 695 mmHg 70%
    18:00 +13°C° 0 mm 2 mps 695 mmHg 72%
    19:00 +12°C° 0 mm 2 mps 695 mmHg 75%
    20:00 +10°C° 0 mm 2 mps 694 mmHg 74%
    21:00 +10°C° 0 mm 2 mps 694 mmHg 73%
    22:00 +10°C° 0 mm 2 mps 694 mmHg 72%
    23:00 +9°C° 0 mm 2 mps 694 mmHg 71%

    Mañana, 17 Noviembre, Domingo

    Tiempo Temperatura Precipitaciones Viento Presión Humedad
    00:00 +9°C° 0 mm 2 mps 693 mmHg 70%
    01:00 +9°C° 0 mm 2 mps 693 mmHg 69%
    02:00 +9°C° 0 mm 2 mps 693 mmHg 70%
    03:00 +9°C° 0 mm 2 mps 692 mmHg 70%
    04:00 +9°C° 0 mm 2 mps 692 mmHg 70%
    05:00 +9°C° 0 mm 2 mps 692 mmHg 71%
    06:00 +9°C° 0 mm 2 mps 691 mmHg 72%
    07:00 +9°C° 0 mm 2 mps 691 mmHg 72%
    08:00 +10°C° 0.5 mm 4 mps 692 mmHg 71%
    09:00 +11°C° 0.5 mm 6 mps 692 mmHg 69%
    10:00 +12°C° 0.5 mm 7 mps 693 mmHg 68%
    11:00 +11°C° 2.6 mm 6 mps 692 mmHg 74%
    12:00 +9°C° 2.6 mm 5 mps 692 mmHg 81%
    13:00 +8°C° 2.6 mm 4 mps 692 mmHg 87%
    14:00 +8°C° 0.9 mm 4 mps 692 mmHg 87%
    15:00 +8°C° 0.9 mm 4 mps 692 mmHg 86%
    16:00 +8°C° 0.9 mm 4 mps 693 mmHg 86%
    17:00 +7°C° 0.3 mm 4 mps 693 mmHg 87%
    18:00 +8°C° 0.3 mm 3 mps 693 mmHg 89%
    19:00 +8°C° 0.3 mm 3 mps 693 mmHg 90%
    20:00 +8°C° 0 mm 3 mps 693 mmHg 90%
    21:00 +7°C° 0 mm 3 mps 694 mmHg 91%
    22:00 +7°C° 0 mm 3 mps 694 mmHg 92%
    23:00 +7°C° 0 mm 3 mps 694 mmHg 91%

    Pasado mañana, 18 Noviembre, Lunes

    Tiempo Temperatura Precipitaciones Viento Presión Humedad
    00:00 +7°C° 0 mm 3 mps 694 mmHg 91%
    01:00 +7°C° 0 mm 3 mps 695 mmHg 90%
    02:00 +5°C° 0 mm 3 mps 695 mmHg 91%
    03:00 +5°C° 0 mm 3 mps 695 mmHg 91%
    04:00 +5°C° 0 mm 2 mps 696 mmHg 91%
    05:00 +5°C° 0 mm 2 mps 696 mmHg 90%
    06:00 +5°C° 0 mm 2 mps 696 mmHg 90%
    07:00 +5°C° 0 mm 2 mps 697 mmHg 89%
    08:00 +6°C° 0 mm 2 mps 697 mmHg 82%
    09:00 +8°C° 0 mm 2 mps 698 mmHg 76%
    10:00 +10°C° 0 mm 3 mps 698 mmHg 69%
    11:00 +10°C° 0 mm 3 mps 698 mmHg 67%
    12:00 +11°C° 0 mm 4 mps 698 mmHg 65%
    13:00 +11°C° 0 mm 4 mps 698 mmHg 63%
    14:00 +11°C° 0.1 mm 4 mps 698 mmHg 66%
    15:00 +10°C° 0.1 mm 3 mps 698 mmHg 70%
    16:00 +10°C° 0.1 mm 3 mps 698 mmHg 73%
    17:00 +9°C° 0.1 mm 3 mps 698 mmHg 77%
    18:00 +9°C° 0.1 mm 3 mps 698 mmHg 80%
    19:00 +8°C° 0.1 mm 2 mps 698 mmHg 84%
    20:00 +8°C° 0 mm 2 mps 698 mmHg 85%
    21:00 +7°C° 0 mm 2 mps 698 mmHg 86%
    22:00 +7°C° 0 mm 2 mps 697 mmHg 88%
    23:00 +7°C° 0 mm 2 mps 697 mmHg 88%

    19 Noviembre, Martes

    Tiempo Temperatura Precipitaciones Viento Presión Humedad
    00:00 +7°C° 0 mm 2 mps 697 mmHg 88%
    01:00 +7°C° 0 mm 2 mps 697 mmHg 88%
    02:00 +7°C° 0.2 mm 2 mps 697 mmHg 88%
    03:00 +7°C° 0.2 mm 2 mps 697 mmHg 88%
    04:00 +7°C° 0.2 mm 2 mps 696 mmHg 88%
    05:00 +7°C° 0.3 mm 2 mps 696 mmHg 89%
    06:00 +7°C° 0.3 mm 2 mps 696 mmHg 90%
    07:00 +7°C° 0.3 mm 2 mps 696 mmHg 91%
    08:00 +8°C° 0.5 mm 3 mps 697 mmHg 89%
    09:00 +8°C° 0.5 mm 3 mps 697 mmHg 87%
    10:00 +9°C° 0.5 mm 3 mps 697 mmHg 85%
    11:00 +9°C° 0.6 mm 3 mps 697 mmHg 84%
    12:00 +9°C° 0.6 mm 3 mps 697 mmHg 84%
    13:00 +9°C° 0.6 mm 3 mps 696 mmHg 84%
    14:00 +9°C° 0.6 mm 3 mps 696 mmHg 85%
    15:00 +9°C° 0.6 mm 2 mps 696 mmHg 87%
    16:00 +8°C° 0.6 mm 2 mps 696 mmHg 88%
    17:00 +8°C° 1 mm 2 mps 696 mmHg 90%
    18:00 +9°C° 1 mm 1 mps 696 mmHg 92%
    19:00 +9°C° 1 mm 1 mps 696 mmHg 93%
    20:00 +9°C° 0.2 mm 1 mps 696 mmHg 93%
    21:00 +8°C° 0.2 mm 1 mps 696 mmHg 94%
    22:00 +8°C° 0.2 mm 1 mps 697 mmHg 94%
    23:00 +8°C° 0.1 mm 1 mps 697 mmHg 94%

    20 Noviembre, Miércoles

    Tiempo Temperatura Precipitaciones Viento Presión Humedad
    00:00 +8°C° 0.1 mm 1 mps 697 mmHg 94%
    01:00 +8°C° 0.1 mm 1 mps 697 mmHg 95%
    02:00 +8°C° 0.1 mm 1 mps 697 mmHg 94%
    03:00 +7°C° 0.1 mm 1 mps 698 mmHg 94%
    04:00 +7°C° 0.1 mm 1 mps 698 mmHg 94%
    05:00 +7°C° 0 mm 1 mps 698 mmHg 92%
    06:00 +7°C° 0 mm 1 mps 698 mmHg 91%
    07:00 +6°C° 0 mm 1 mps 699 mmHg 90%
    08:00 +7°C° 0 mm 1 mps 699 mmHg 83%
    09:00 +8°C° 0 mm 1 mps 700 mmHg 77%
    10:00 +9°C° 0 mm 1 mps 701 mmHg 71%
    11:00 +9°C° 0 mm 2 mps 701 mmHg 64%
    12:00 +10°C° 0 mm 2 mps 701 mmHg 57%
    13:00 +12°C° 0 mm 2 mps 701 mmHg 50%
    14:00 +10°C° 0 mm 2 mps 701 mmHg 55%
    15:00 +9°C° 0 mm 2 mps 701 mmHg 60%
    16:00 +10°C° 0 mm 1 mps 701 mmHg 65%
    17:00 +9°C° 0 mm 1 mps 701 mmHg 69%
    18:00 +8°C° 0 mm 1 mps 701 mmHg 74%
    19:00 +7°C° 0 mm 1 mps 701 mmHg 78%
    20:00 +6°C° 0 mm 1 mps 701 mmHg 79%
    21:00 +6°C° 0 mm 1 mps 701 mmHg 80%
    22:00 +6°C° 0 mm 1 mps 701 mmHg 81%
    23:00 +6°C° 0 mm 1 mps 701 mmHg 82%

    21 Noviembre, Jueves

    Tiempo Temperatura Precipitaciones Viento Presión Humedad
    00:00 +6°C° 0 mm 1 mps 701 mmHg 83%
    01:00 +6°C° 0 mm 1 mps 701 mmHg 84%
    02:00 +6°C° 0 mm 1 mps 701 mmHg 85%
    03:00 +6°C° 0 mm 1 mps 701 mmHg 86%
    04:00 +5°C° 0 mm 1 mps 700 mmHg 87%
    05:00 +5°C° 0 mm 1 mps 700 mmHg 87%
    06:00 +5°C° 0 mm 1 mps 700 mmHg 87%
    07:00 +5°C° 0 mm 1 mps 700 mmHg 87%
    08:00 +7°C° 0 mm 1 mps 701 mmHg 83%
    09:00 +8°C° 0 mm 1 mps 701 mmHg 78%
    10:00 +9°C° 0 mm 2 mps 701 mmHg 74%
    11:00 +9°C° 0 mm 2 mps 701 mmHg 70%
    12:00 +10°C° 0 mm 2 mps 701 mmHg 66%
    13:00 +11°C° 0 mm 3 mps 701 mmHg 63%
    14:00 +12°C° 0 mm 2 mps 701 mmHg 67%
    15:00 +10°C° 0 mm 2 mps 701 mmHg 72%
    16:00 +9°C° 0 mm 2 mps 700 mmHg 76%
    17:00 +8°C° 0 mm 2 mps 700 mmHg 80%
    18:00 +8°C° 0 mm 2 mps 700 mmHg 85%
    19:00 +7°C° 0 mm 2 mps 700 mmHg 89%
    20:00 +6°C° 0 mm 2 mps 700 mmHg 89%
    21:00 +6°C° 0 mm 2 mps 701 mmHg 89%
    22:00 +6°C° 0 mm 2 mps 701 mmHg 90%
    23:00 +6°C° 0 mm 2 mps 701 mmHg 90%
    Mostrar más